Theta_e
316 307 306 306 309 313 315 317 316 316 316 316 316 314 313 314 317 326 328 331 337 328 325 325 325 325 325 329 331 334 337 338 338 337 336 335 334 334 333 333 335 337 338 343 347 349 350 350 351 350 349 349 349 352 353 353 353 355 354 356 355 357 358 356 355 355 353 354 357 357 352 350 354 358 359 358 359 359 359 362 363 366 364 368 368 368
314 307 307 310 310 310 313 316 317 316 315 313 313 311 313 315 312 324 324 332 335 328 324 327 326 325 325 330 332 334 335 334 335 336 336 335 335 335 333 332 334 337 340 343 346 347 349 350 351 350 349 350 348 351 353 352 352 355 354 355 356 356 359 355 355 355 356 358 356 355 351 350 352 355 355 357 359 359 360 367 367 369 368 369 369 370
306 304 309 311 312 311 311 310 311 310 309 310 309 311 310 314 318 327 328 329 333 330 325 328 323 323 327 330 331 331 332 336 337 338 338 336 335 336 333 333 335 336 339 342 343 346 347 349 350 350 349 348 348 350 351 353 353 353 354 355 358 356 357 356 357 357 358 359 357 354 354 352 351 357 358 357 360 361 360 363 368 370 370 370 369 370
302 305 309 311 311 310 310 310 309 309 309 309 309 309 310 317 312 306 325 328 330 328 326 326 322 323 328 330 329 332 334 334 337 340 340 340 336 335 333 333 334 335 338 339 342 342 345 348 351 351 349 348 347 348 350 351 352 352 355 356 357 357 357 358 361 359 360 360 361 363 358 359 355 354 361 364 363 363 362 360 363 368 371 368 367 367
303 308 311 310 310 310 309 310 309 308 307 309 310 309 309 310 313 314 316 325 327 331 332 326 322 321 324 322 324 330 335 332 333 336 339 340 340 338 336 334 336 336 338 339 340 343 344 347 348 350 350 349 346 346 349 350 351 350 353 356 359 358 357 359 360 361 362 360 361 363 362 360 360 360 356 356 354 358 360 361 359 363 365 367 368 367
304 308 309 307 307 308 308 307 308 309 306 307 310 310 311 313 312 319 323 322 320 320 328 326 313 312 321 323 325 327 327 328 333 333 332 338 339 338 334 333 335 337 340 340 340 342 344 346 348 351 351 349 348 347 348 350 351 352 353 356 360 359 359 357 360 362 361 359 357 356 354 352 351 351 351 349 349 351 352 355 359 363 362 364 367 368
305 309 307 306 305 305 305 305 308 309 306 305 307 313 312 314 317 320 320 321 313 310 323 327 311 307 319 320 322 325 325 327 333 334 334 337 339 336 335 334 333 335 337 340 340 341 342 345 347 349 350 349 347 348 348 349 351 352 354 357 358 362 362 359 361 361 361 359 358 357 353 352 351 351 351 356 352 353 356 361 360 362 362 364 364 366
306 306 306 306 305 305 304 302 306 307 305 304 317 314 316 315 317 319 320 321 317 324 327 324 323 311 312 318 324 325 323 326 328 331 334 336 337 336 336 335 334 334 336 337 338 340 342 345 346 347 349 349 347 348 348 347 349 353 356 358 359 361 361 363 364 362 361 359 358 357 355 353 352 349 353 355 358 360 362 361 363 362 363 363 363 367
306 304 305 304 304 304 303 305 307 307 304 309 318 319 315 316 321 320 318 319 321 317 312 318 324 313 311 320 326 326 320 323 325 329 332 333 337 337 335 335 335 335 336 337 337 338 340 344 345 347 348 349 348 348 348 348 349 352 356 359 361 361 362 362 365 362 361 361 359 358 356 354 355 355 354 357 358 359 361 359 363 365 363 364 366 365
308 308 308 307 305 303 306 307 308 307 304 313 318 319 320 320 320 322 314 319 320 315 307 314 322 309 308 319 319 324 321 320 323 328 332 335 337 337 335 336 335 335 337 337 338 339 341 343 344 346 349 349 349 348 349 349 349 352 356 359 360 361 361 362 363 363 362 361 361 358 356 356 356 357 359 359 357 359 362 358 363 364 364 363 364 364
309 313 314 308 306 308 309 309 309 308 308 321 317 314 316 316 318 319 317 316 316 306 310 319 322 316 306 317 318 317 319 323 325 326 330 335 337 338 338 335 335 334 336 337 337 339 341 343 344 345 346 350 350 350 349 349 350 351 354 357 359 360 360 361 362 362 361 361 360 358 358 357 357 358 359 360 359 360 362 359 360 362 363 363 362 362
309 309 308 310 311 311 313 312 312 311 313 317 313 310 311 312 316 314 314 317 305 302 312 319 321 321 306 313 320 324 329 327 329 327 329 333 336 337 338 335 335 335 335 337 337 337 339 341 342 344 346 348 350 350 349 348 350 352 354 356 358 360 361 361 361 361 359 359 360 360 360 358 360 360 358 359 358 359 360 360 359 362 362 364 363 362
305 306 309 310 314 310 311 310 313 314 316 311 312 309 302 302 306 299 308 303 302 301 315 319 319 313 311 315 322 325 328 330 331 332 329 331 333 336 338 337 335 334 335 337 338 337 338 339 340 341 344 349 351 350 350 348 349 352 354 356 357 359 361 361 361 361 361 360 360 359 359 360 361 360 360 360 359 360 360 360 361 364 361 363 362 363
305 310 310 315 314 315 314 305 309 306 310 310 308 306 301 297 296 293 300 304 304 309 316 319 322 311 314 317 323 323 328 332 333 335 336 331 334 337 338 339 336 334 334 336 337 339 339 340 341 343 344 348 350 350 350 349 351 352 353 356 357 359 361 362 361 360 361 361 361 361 359 359 360 360 362 360 359 359 361 361 361 360 358 360 360 359
297 299 305 311 308 319 315 311 310 308 309 307 310 306 303 302 298 295 299 297 298 302 314 320 312 307 307 316 324 325 327 332 335 335 338 334 335 339 340 340 337 334 335 336 337 338 339 340 343 342 345 348 350 349 350 350 352 354 354 356 358 358 360 361 360 360 361 360 361 361 360 359 360 360 360 360 361 362 361 359 359 362 359 358 361 360
300 301 306 311 310 316 314 317 320 315 312 311 311 312 305 302 307 300 306 305 303 303 307 314 309 314 314 328 330 330 329 332 335 334 336 336 333 337 338 338 336 334 334 335 337 338 340 342 343 343 345 347 349 350 350 351 353 353 355 357 358 358 359 359 361 361 360 361 361 363 362 360 361 361 361 362 363 363 362 363 362 363 364 363 363 366
302 299 307 311 311 311 316 319 318 317 302 314 313 305 305 313 311 309 311 310 309 305 300 311 313 317 323 326 326 326 327 330 333 332 333 333 332 334 336 337 337 335 334 336 337 339 342 342 344 344 346 346 347 348 350 353 354 356 356 356 357 358 359 359 361 360 361 362 361 362 362 361 360 360 359 358 361 359 362 364 363 361 361 364 366 363
300 301 307 308 310 317 317 318 321 318 318 315 307 310 318 320 317 310 299 305 304 299 301 311 305 308 312 305 325 325 323 324 329 331 332 333 333 331 334 337 337 334 335 338 340 342 343 344 345 345 346 348 346 347 351 354 356 358 358 358 357 357 358 357 358 358 360 361 361 362 362 362 361 360 357 359 359 361 362 363 362 364 361 362 363 362
306 299 304 308 310 316 315 315 318 320 319 314 312 320 307 303 301 309 307 296 297 298 300 304 308 308 310 311 322 322 323 323 325 329 331 330 332 330 331 335 337 336 336 338 340 342 343 344 345 347 348 350 351 350 352 355 356 359 358 356 356 356 356 356 356 356 358 359 358 358 360 360 360 360 360 360 363 363 361 360 361 361 362 362 365 366
308 299 302 307 308 313 316 313 308 312 318 318 320 313 318 313 310 307 308 306 306 299 300 299 305 301 314 318 323 323 325 326 326 326 327 330 332 333 331 333 336 336 336 339 341 342 341 342 346 348 349 351 352 352 352 356 355 355 357 355 355 357 357 357 355 356 356 357 358 357 359 361 362 362 360 362 364 361 360 361 359 361 359 361 363 364
305 308 297 305 309 309 304 308 308 311 308 310 310 310 312 311 315 312 312 306 304 302 300 300 298 304 316 325 327 327 328 327 328 328 329 329 332 334 335 332 338 340 339 340 340 340 341 342 343 348 351 352 353 354 353 355 354 354 355 355 357 356 354 354 354 356 358 358 359 359 359 358 359 358 359 359 361 361 361 362 362 360 361 364 363 364
305 305 299 303 302 303 306 311 311 311 311 309 308 308 310 310 306 301 300 309 306 302 297 299 298 306 321 331 327 327 330 329 331 330 330 331 331 334 336 337 335 337 338 339 338 339 341 343 344 347 351 350 351 352 354 354 355 355 354 353 356 353 354 354 355 358 360 361 359 358 359 359 358 359 358 357 360 359 358 360 361 363 364 362 364 365
309 307 303 300 301 304 307 312 316 316 314 314 314 312 315 313 310 304 295 301 305 305 307 306 302 306 323 331 331 330 331 333 333 331 330 331 332 332 335 338 339 339 340 339 337 340 343 345 346 347 350 350 351 352 353 354 354 355 356 357 358 357 357 356 358 360 362 362 361 360 359 360 359 358 357 356 357 356 355 358 360 363 363 360 361 364
315 305 301 302 305 309 311 313 316 318 316 316 315 316 314 311 311 308 305 308 304 306 303 303 300 306 325 333 333 332 332 334 334 332 331 331 333 334 337 336 339 341 341 340 341 341 345 346 348 349 350 351 352 353 354 355 357 357 358 359 361 360 361 361 361 362 365 364 361 362 361 360 359 357 357 356 357 357 357 357 359 361 361 360 359 359
302 309 302 298 298 301 305 309 308 312 313 313 312 314 315 315 314 313 312 315 303 304 305 302 297 304 323 331 331 332 331 331 331 332 334 334 335 335 336 336 337 340 340 341 341 343 345 346 348 349 351 353 353 353 354 354 357 358 358 361 360 362 363 362 364 364 366 365 361 361 359 359 359 357 359 359 359 358 357 356 357 360 360 359 359 360
305 305 303 296 293 291 292 295 298 302 305 311 313 312 313 312 313 312 306 308 299 305 306 304 302 316 324 327 328 330 331 331 335 336 337 337 335 335 334 335 337 338 340 343 344 345 345 347 349 351 353 354 355 354 355 356 357 359 361 362 363 363 364 364 365 366 367 366 361 359 359 358 358 358 358 360 360 360 358 356 356 358 359 360 360 361
306 306 305 303 300 297 300 305 310 309 309 306 309 310 311 313 313 312 310 307 302 305 307 309 308 311 315 323 324 327 329 329 331 333 332 333 336 337 339 339 339 338 341 344 345 346 347 348 349 351 353 354 356 356 357 357 357 359 361 362 363 363 364 366 366 367 368 367 363 360 359 358 358 359 359 362 362 362 360 359 357 356 357 360 360 359
308 303 305 305 305 305 306 309 311 311 307 307 305 307 311 311 311 310 307 305 313 308 302 312 316 311 316 322 324 326 328 330 332 332 332 334 336 335 336 338 338 341 344 346 346 346 345 345 348 350 351 353 354 357 357 358 358 360 361 360 362 364 364 363 364 366 366 366 364 363 362 362 361 363 364 365 365 365 362 359 358 359 360 361 360 358
305 301 305 304 303 305 307 309 311 311 312 311 309 308 309 311 311 308 309 312 313 308 305 314 319 315 319 323 325 327 328 330 332 336 335 336 335 335 335 336 337 339 341 342 345 347 347 346 347 347 349 350 353 354 356 357 358 360 361 362 363 363 364 365 365 366 365 366 366 366 367 367 366 367 369 368 368 367 365 362 359 360 361 362 361 357
307 302 304 304 302 304 305 307 309 308 310 309 309 308 311 310 311 311 312 313 315 314 316 316 318 318 322 324 327 330 332 332 334 337 337 335 333 335 335 335 335 337 339 343 346 347 348 349 349 348 349 349 351 353 354 356 357 357 358 360 361 362 364 365 365 365 366 366 367 368 369 370 369 369 371 370 370 370 367 363 360 359 361 361 360 362
305 302 305 304 303 302 304 306 307 307 307 306 307 309 309 310 311 312 311 312 314 316 316 316 318 319 327 329 329 331 333 334 333 329 327 330 335 334 333 332 333 336 338 340 343 348 350 350 350 350 350 350 350 351 353 355 357 358 359 359 360 362 364 364 364 365 365 365 367 368 368 368 369 369 369 367 368 370 368 365 365 363 363 363 363 362
306 303 307 306 300 300 303 303 304 306 306 305 305 306 307 307 306 309 311 315 313 310 314 316 316 318 326 329 329 332 331 332 331 331 328 329 333 334 333 334 334 335 337 339 342 343 345 346 348 349 350 351 352 352 354 355 357 357 357 359 360 362 363 362 362 361 363 364 366 366 365 365 366 364 356 350 352 358 367 369 368 368 368 365 362 366
306 304 303 302 299 299 303 304 303 304 303 300 302 306 309 310 312 312 313 316 316 319 313 311 315 324 328 329 326 327 328 329 327 327 329 330 333 334 336 335 336 336 336 339 341 342 342 344 347 349 348 350 351 352 354 356 355 355 357 358 361 362 361 360 362 362 362 363 364 364 364 365 363 360 358 358 354 349 352 364 367 367 365 363 365 366
308 305 303 306 298 299 302 303 304 300 293 294 309 314 314 310 314 311 310 314 320 322 318 323 323 328 328 328 326 326 327 326 327 330 333 332 330 330 331 331 333 334 335 337 339 341 342 345 345 346 348 348 350 351 353 354 354 355 358 359 361 361 361 359 361 360 361 362 362 362 361 363 361 357 356 358 356 356 358 361 362 363 361 361 364 364
306 306 303 307 300 298 302 302 297 291 295 309 317 316 320 319 318 316 317 318 320 323 325 324 324 327 327 327 326 327 327 328 330 329 329 331 329 327 328 329 329 330 331 332 334 336 337 339 341 343 345 347 348 350 351 351 353 354 354 354 355 356 357 357 356 356 357 359 360 359 358 358 358 356 354 354 355 356 354 355 360 362 361 361 362 360
305 304 305 303 303 302 299 298 289 292 304 307 312 315 320 319 317 316 314 316 318 321 324 323 326 329 328 327 327 328 328 329 331 331 330 330 333 330 329 328 327 328 327 329 330 331 332 335 336 337 338 343 347 348 349 349 352 351 352 354 353 353 355 357 357 357 358 357 355 356 356 354 354 354 353 352 350 349 349 351 354 357 357 357 359 358
306 307 305 301 305 296 298 297 297 304 303 306 307 312 312 310 313 314 307 312 320 325 325 325 326 328 328 327 327 327 329 330 330 327 329 329 330 331 330 329 328 328 328 329 330 330 333 335 336 336 337 338 339 340 343 348 348 348 349 349 350 351 353 355 356 353 354 351 349 349 349 348 348 347 349 350 346 343 346 346 349 353 358 357 357 357
313 305 306 301 301 303 297 295 296 296 293 301 308 314 316 317 318 318 314 309 317 319 325 326 325 326 325 327 327 328 330 327 324 323 327 329 330 329 330 330 332 331 330 329 330 332 333 334 335 336 336 336 337 339 342 344 343 340 339 339 341 342 341 340 342 348 350 351 351 349 348 346 345 344 345 345 344 343 344 347 349 352 356 355 356 355
311 312 311 302 300 301 299 295 294 293 297 306 309 313 318 319 319 320 312 304 317 323 326 327 326 325 325 326 327 329 326 321 321 325 329 329 329 330 329 328 329 330 329 329 328 329 331 332 333 334 335 336 335 336 337 337 336 335 333 333 334 334 333 334 335 335 339 346 348 348 347 348 347 345 344 344 344 344 344 345 347 348 349 351 350 349
307 305 305 301 300 301 298 296 294 299 298 311 316 315 317 320 318 315 298 302 315 325 326 328 328 328 327 328 330 329 326 321 322 325 329 327 327 329 330 328 327 328 329 330 329 329 329 331 331 331 332 332 332 333 332 332 331 330 329 329 329 328 328 329 331 333 334 338 342 344 344 344 344 344 344 344 342 343 344 345 343 342 344 344 347 346
302 303 303 298 300 299 300 298 300 301 310 315 316 318 319 321 315 302 295 311 320 324 327 327 329 329 331 329 328 324 329 330 330 330 329 329 327 327 330 331 330 329 328 329 328 330 328 329 328 329 332 333 333 332 333 333 331 329 328 328 327 327 327 330 332 332 332 334 336 337 338 338 338 339 339 340 340 341 340 341 340 341 341 341 342 342
302 303 302 304 299 298 299 297 298 302 313 316 319 319 321 314 300 299 316 321 326 326 326 327 328 329 331 330 329 329 330 329 331 330 328 326 326 326 327 329 329 329 330 330 331 330 329 329 329 328 330 331 331 331 332 332 330 329 329 328 326 327 329 331 332 333 332 331 332 334 335 336 337 339 339 339 339 337 337 339 340 339 339 338 337 335
302 299 298 299 302 302 302 298 295 290 311 316 319 318 319 307 310 318 323 327 327 328 326 328 329 329 330 328 329 331 329 328 329 326 323 322 323 326 326 327 327 328 329 330 330 330 330 328 328 327 328 330 331 330 331 331 329 328 328 326 327 330 331 333 333 332 330 330 330 331 334 337 338 338 340 339 339 338 337 337 337 336 336 335 334 334
311 299 299 301 305 297 298 296 295 306 315 321 317 308 316 318 324 326 322 321 328 328 329 329 330 331 330 330 330 329 327 326 325 324 322 321 323 327 327 327 328 328 328 328 328 328 327 326 326 326 327 328 330 332 332 330 327 326 326 326 328 327 329 330 330 331 332 333 333 331 334 336 337 337 339 339 338 340 338 338 337 336 336 337 336 334
310 304 311 300 309 303 302 306 317 320 320 321 322 323 323 325 325 326 326 324 326 328 331 329 329 330 329 330 329 328 325 324 323 323 319 318 321 323 323 324 325 325 324 324 324 325 324 322 322 322 324 325 327 327 328 328 327 326 326 327 329 329 327 328 327 326 327 328 329 330 331 331 332 334 334 338 341 339 338 337 338 337 337 338 339 337
315 317 317 310 306 314 316 317 319 319 319 322 321 325 324 326 326 327 326 326 330 330 331 330 331 331 327 328 327 328 326 323 321 319 319 319 321 324 325 324 324 325 324 324 324 323 322 321 320 320 320 322 324 325 327 326 327 327 327 329 331 330 330 329 328 328 327 327 327 326 326 326 327 329 330 331 333 334 335 336 336 335 337 338 338 338
313 314 311 305 313 304 299 319 316 318 322 322 323 325 328 326 327 327 328 328 327 328 331 332 333 332 330 328 327 325 324 324 319 319 319 320 320 321 322 322 324 324 323 323 324 323 323 323 321 321 321 322 324 324 324 325 326 327 328 329 330 331 331 330 329 330 330 328 326 327 327 326 323 322 322 323 323 325 328 331 332 332 333 333 332 332
309 315 309 308 310 306 306 319 321 322 323 325 324 324 325 325 327 328 328 329 329 330 331 332 333 332 333 330 329 326 326 324 322 321 320 321 322 322 323 325 327 327 328 328 327 325 324 324 323 323 324 324 325 326 327 329 329 329 328 327 328 330 332 330 328 325 324 323 323 322 322 321 322 320 320 321 320 319 319 320 321 321 324 326 328 327
318 314 304 310 307 311 318 317 320 322 323 324 325 327 327 327 328 327 328 329 330 330 330 330 332 331 331 327 326 326 324 324 322 322 323 322 322 323 323 323 326 327 327 326 326 326 324 324 323 324 324 324 327 329 328 327 327 328 329 329 330 331 329 327 328 326 323 321 321 321 323 321 321 320 320 321 322 320 321 323 322 320 319 323 325 324
311 306 313 311 306 306 306 313 319 311 314 319 322 324 325 328 330 329 328 329 329 329 328 326 327 329 329 327 327 327 322 319 320 320 321 320 321 322 324 322 322 324 327 328 328 327 326 325 325 324 324 326 327 327 328 328 328 328 327 329 330 331 330 328 326 326 324 323 321 320 320 320 322 323 323 321 320 319 316 312 301 308 322 318 315 304
309 312 311 306 305 303 313 320 323 322 320 320 322 324 327 328 327 326 328 328 329 330 328 327 325 325 326 325 321 317 319 319 319 317 318 319 320 321 322 322 321 320 323 327 327 327 326 326 326 325 325 325 325 324 324 324 325 327 328 330 330 331 332 330 326 323 322 325 326 324 324 323 322 325 326 327 326 325 322 319 316 297 296 308 309 300
Wind_Speed
4 8 8 9 7 4 4 3 5 4 3 6 6 5 4 5 4 5 4 2 1 4 5 6 7 6 9 9 10 10 11 13 13 13 11 11 11 12 11 11 10 11 10 9 10 10 10 10 9 9 9 9 10 9 10 9 10 9 9 9 9 8 8 7 7 7 7 7 6 6 7 7 6 4 4 4 5 5 5 5 5 4 4 3 2 2
8 8 8 2 3 1 3 4 6 7 8 8 6 6 4 1 3 5 3 3 2 5 3 3 6 7 9 8 10 9 12 14 14 13 13 14 12 11 12 12 11 11 9 11 9 10 10 9 10 10 9 10 11 10 11 10 10 10 10 10 9 8 8 8 7 7 6 6 6 6 5 5 6 5 5 4 4 4 6 4 3 3 3 2 2 1
8 10 5 4 3 2 3 4 4 6 7 7 6 4 5 2 1 4 1 3 2 5 0 3 4 5 6 8 8 8 12 11 11 12 13 14 13 11 12 12 12 12 10 10 10 10 10 11 12 10 10 10 11 11 11 11 10 10 9 9 9 8 8 8 8 7 6 6 6 6 5 4 4 4 4 4 4 4 5 5 4 2 2 2 2 2
7 9 6 4 4 5 5 6 5 8 8 8 6 6 5 4 7 1 5 0 4 4 2 1 3 2 5 6 7 8 7 11 11 11 12 11 12 13 13 13 12 12 11 11 11 11 11 11 11 10 10 10 11 11 11 11 11 10 8 9 9 9 9 8 7 7 7 6 5 2 4 3 2 4 3 3 3 3 3 4 4 4 3 3 2 2
5 4 6 4 5 7 8 6 8 8 9 10 9 6 7 5 2 5 4 2 1 5 6 4 3 2 5 6 6 6 7 4 3 11 10 11 11 11 11 13 13 13 12 11 12 11 11 11 12 11 11 11 11 12 12 12 11 9 11 10 9 8 9 8 8 8 7 6 6 4 3 4 2 2 3 4 5 4 4 4 5 5 4 3 2 2
6 4 4 6 6 7 9 8 10 9 9 8 10 9 7 5 6 1 1 3 5 6 8 6 4 2 6 9 7 5 6 10 11 11 14 12 12 12 12 13 14 12 12 11 12 11 11 11 11 11 12 12 11 12 12 12 12 11 11 11 10 8 8 9 9 9 7 6 6 6 6 5 5 5 5 5 5 6 5 5 4 5 5 4 4 3
3 7 8 8 9 9 10 10 10 9 11 9 2 2 2 1 1 2 3 4 6 4 5 4 7 2 4 8 10 9 9 12 12 11 13 12 11 12 12 12 13 14 13 12 10 11 12 12 12 12 12 13 13 12 12 12 12 12 11 12 11 9 8 8 9 10 7 7 7 7 7 6 5 5 4 3 4 4 4 3 4 3 4 3 3 4
5 7 9 10 10 9 9 9 10 10 10 10 6 3 2 5 3 2 3 4 7 1 3 4 4 6 4 6 9 9 12 14 15 16 15 10 13 13 13 13 13 14 14 12 12 12 11 12 12 13 13 12 12 12 12 12 11 12 11 12 11 9 8 8 9 10 8 8 7 7 6 5 5 5 4 4 3 2 1 3 2 3 3 4 3 2
5 8 8 8 9 8 8 7 4 10 11 4 1 3 5 1 1 3 4 5 4 6 5 7 5 4 3 3 9 13 12 14 17 16 16 17 16 14 15 15 14 14 14 13 12 13 13 12 13 13 13 12 12 12 12 12 11 12 11 11 11 10 9 8 9 9 9 8 7 7 6 5 4 4 4 4 3 3 3 2 2 1 2 3 3 3
4 4 3 7 6 7 7 4 5 7 12 7 3 1 1 2 3 3 4 5 4 6 7 3 7 5 3 6 7 9 9 11 15 16 15 16 16 15 15 15 15 14 13 13 13 12 12 12 12 13 12 12 11 12 12 12 11 12 11 12 12 11 9 9 10 9 9 9 7 7 6 6 5 4 2 2 3 2 3 3 3 3 2 3 4 4
3 3 3 6 7 5 3 1 5 8 11 4 8 8 6 6 5 4 5 4 5 8 5 3 7 5 4 5 8 11 12 15 12 12 15 17 16 16 16 16 14 14 14 13 13 13 13 13 12 12 12 12 11 10 12 12 11 12 12 12 12 12 9 10 10 10 10 9 8 7 7 7 6 5 4 3 4 3 4 3 4 3 3 3 2 2
6 5 6 4 7 3 5 3 5 7 6 9 8 9 5 5 5 6 5 5 7 7 4 1 4 6 6 3 7 11 7 10 12 15 19 18 18 16 15 15 16 15 14 14 13 14 13 13 13 12 12 12 12 11 12 12 12 11 11 12 13 12 11 10 11 11 10 9 9 8 8 7 6 5 4 4 4 4 4 4 3 2 2 2 3 3
7 4 2 4 4 10 8 7 4 7 8 11 8 8 7 6 2 7 6 8 8 6 5 2 4 5 9 8 3 10 11 9 13 11 15 17 19 18 17 17 16 15 16 15 13 13 13 13 13 14 13 12 12 10 12 13 12 12 11 12 13 13 12 11 11 11 11 10 9 9 8 8 6 6 5 4 5 4 4 3 3 4 3 3 3 3
6 4 6 4 5 8 9 8 5 7 8 9 11 9 9 10 8 9 8 7 6 2 2 4 3 8 6 5 7 8 11 12 13 12 11 15 18 19 17 17 16 16 16 15 15 14 13 13 13 13 13 12 11 12 12 12 12 11 11 12 13 13 12 11 11 11 11 10 9 9 9 8 6 6 6 5 5 5 4 3 3 4 4 4 4 4
3 9 6 4 3 7 10 9 5 5 7 11 6 10 9 10 8 9 7 8 7 3 5 5 6 1 2 4 2 1 6 10 12 11 9 12 16 17 17 17 19 17 17 15 15 15 14 14 14 14 13 13 13 13 12 11 11 11 11 12 12 12 13 12 12 11 11 10 10 9 9 8 7 7 6 6 5 4 5 4 4 3 4 3 3 3
5 5 7 2 4 4 9 7 5 5 4 7 7 7 11 11 3 8 7 4 4 5 7 7 4 1 2 5 4 1 3 8 10 11 9 11 14 15 15 17 17 17 17 16 15 15 15 15 14 13 13 13 13 14 12 13 12 12 11 12 13 13 12 12 12 11 10 10 9 10 10 9 8 7 6 6 5 5 5 5 4 4 4 3 2 2
5 5 4 4 3 5 7 5 6 4 7 4 5 8 7 3 8 7 8 8 4 5 8 5 5 5 1 7 8 6 6 8 10 11 12 13 14 15 15 15 17 17 16 15 15 14 15 15 15 14 14 13 13 13 13 13 12 13 12 12 13 13 12 13 12 12 10 10 10 10 10 10 9 9 9 8 8 8 7 5 5 5 5 4 4 4
9 2 4 3 3 2 6 5 4 4 4 3 7 6 4 2 2 3 2 6 5 7 4 2 4 6 1 1 4 8 8 9 11 11 12 11 11 14 14 14 14 17 16 16 15 14 15 14 15 14 14 14 14 14 14 14 13 13 12 13 14 14 14 13 13 13 12 11 11 10 11 11 10 10 10 9 8 7 6 6 6 5 5 5 5 5
5 8 5 2 1 5 3 5 6 6 5 2 8 4 6 7 10 8 5 8 6 5 4 5 6 5 4 2 4 7 8 9 11 11 11 12 11 13 13 15 16 17 17 15 14 12 13 13 14 14 14 14 13 14 14 14 14 13 13 13 13 14 15 14 12 12 11 12 10 9 11 12 11 10 9 8 7 6 6 7 7 7 5 5 5 4
3 8 2 4 4 5 3 4 5 5 4 6 6 6 2 4 3 3 2 7 5 7 5 4 7 4 2 3 5 3 1 4 8 11 12 14 14 12 12 12 15 17 15 13 13 13 13 14 15 15 15 14 14 14 13 14 14 15 14 14 13 13 13 14 14 12 13 12 11 10 10 10 10 10 9 8 7 7 7 7 7 7 7 7 5 6
5 0 8 4 4 4 5 3 5 7 3 6 8 8 4 3 2 5 4 7 7 7 6 7 6 3 3 6 7 6 4 4 5 8 10 11 14 15 13 13 13 14 13 11 11 10 12 13 15 15 14 13 13 13 13 13 14 13 13 13 14 14 15 15 14 13 12 11 11 11 11 11 11 12 10 10 9 9 8 7 7 7 6 6 6 5
6 4 7 6 5 5 3 5 8 5 10 9 6 6 8 9 7 7 7 6 9 8 4 6 7 3 4 4 6 7 5 3 4 6 7 10 12 14 13 12 12 11 11 12 11 12 13 14 15 14 13 13 13 12 13 13 12 13 13 13 14 14 14 14 13 12 11 11 11 12 12 11 11 11 11 11 10 10 9 8 7 7 6 7 7 6
5 4 8 7 6 5 4 5 5 1 2 5 6 7 3 4 2 5 5 5 7 7 7 4 6 4 6 5 4 5 5 5 4 4 5 6 9 13 14 13 10 11 13 13 12 13 13 14 13 13 14 14 14 13 14 13 12 12 13 12 12 12 13 13 12 11 11 11 10 12 11 11 11 11 12 12 11 11 11 10 9 8 8 8 7 8
2 5 6 7 1 6 5 3 5 3 1 5 5 4 6 5 3 4 3 5 7 4 5 2 3 3 2 3 3 4 4 3 1 1 3 3 5 9 10 11 9 10 11 11 10 12 12 12 12 12 13 13 13 13 13 12 12 12 12 12 11 13 13 12 11 11 11 11 12 12 11 11 10 11 12 12 10 11 10 9 9 9 8 7 7 7
8 2 6 7 6 7 7 5 4 3 7 5 2 2 2 1 2 4 3 3 10 6 7 5 6 1 3 2 2 2 4 4 1 2 3 6 6 5 8 9 8 8 9 11 12 12 12 12 12 12 12 12 13 12 12 13 12 12 12 12 12 11 12 11 11 11 12 12 12 12 11 11 11 11 11 10 9 10 10 9 8 8 8 8 7 7
6 2 4 6 8 9 9 8 5 6 9 4 1 2 4 2 5 7 6 10 8 1 5 4 6 1 1 1 2 3 3 3 3 4 4 5 6 6 6 7 8 9 10 11 11 11 11 11 11 11 12 11 12 12 12 12 12 12 12 13 13 12 11 12 11 11 11 11 12 11 12 12 12 12 11 10 9 9 8 8 8 8 7 8 7 6
4 3 5 4 6 9 4 1 5 2 3 8 3 6 4 4 1 4 2 3 5 4 3 1 5 5 4 3 3 3 3 3 2 1 2 5 6 6 4 1 4 6 9 10 10 9 9 10 11 11 11 10 11 11 11 12 12 12 12 13 13 12 12 12 12 12 11 11 12 11 12 12 12 11 11 10 9 8 8 8 8 8 7 7 7 7
3 7 4 6 6 7 6 3 2 4 7 6 5 11 7 4 1 4 4 2 4 3 6 2 5 2 2 2 3 2 3 2 1 1 1 2 1 4 5 4 2 4 5 7 9 10 10 11 10 10 10 10 10 10 10 10 11 11 11 12 12 11 11 11 12 12 11 11 11 11 12 12 11 10 9 8 9 9 9 9 8 7 7 6 7 8
6 8 2 5 6 4 4 4 1 6 5 1 4 5 9 8 6 4 2 1 1 4 4 2 3 5 3 4 4 3 2 3 3 4 2 2 2 3 6 6 5 6 6 8 9 9 11 11 10 11 10 9 9 10 10 9 9 9 9 9 10 10 11 11 11 11 11 10 10 10 10 9 9 7 8 8 8 9 9 8 8 7 6 6 6 7
5 8 3 4 7 6 5 5 3 6 4 7 8 7 7 5 8 7 3 3 2 2 2 3 3 4 3 3 4 3 2 3 4 4 2 2 4 4 5 5 4 4 4 5 6 8 8 8 9 9 10 10 10 9 9 9 9 9 9 9 9 10 10 10 10 10 10 10 9 8 8 7 7 7 7 8 8 8 8 8 8 8 7 6 7 6
7 0 1 6 7 8 5 4 6 6 6 9 8 7 9 7 6 5 9 4 5 3 2 4 4 3 2 1 0 1 3 4 7 9 7 7 3 1 1 4 4 4 3 2 3 3 4 5 6 6 7 8 8 9 8 8 7 7 8 8 9 9 9 9 10 10 9 9 9 8 7 6 6 5 5 1 4 6 6 7 6 6 6 6 6 6
6 4 2 5 7 7 6 6 6 5 7 9 9 9 9 10 9 6 6 3 6 7 4 5 6 3 4 2 1 2 2 4 5 6 6 3 3 1 2 1 4 3 0 1 1 2 3 4 5 5 5 5 5 5 6 6 6 7 8 8 9 9 9 10 10 10 9 9 9 9 9 8 7 5 5 4 5 6 2 4 5 4 5 6 7 6
6 5 5 6 8 8 3 4 5 7 8 11 8 6 7 6 8 9 9 8 6 6 7 7 6 2 3 3 2 1 0 4 3 6 4 6 6 8 6 4 3 2 2 1 2 3 3 3 3 3 4 5 6 6 6 6 7 8 8 8 8 7 9 10 10 9 10 10 9 9 8 9 8 8 6 4 3 4 6 6 4 5 5 6 5 3
3 6 5 2 6 5 1 3 4 7 10 4 2 4 4 6 6 9 10 7 6 4 3 3 4 4 2 2 4 2 3 4 4 4 4 6 6 7 7 8 9 9 7 4 3 4 4 4 4 3 2 2 2 4 4 6 7 6 6 7 7 8 8 9 9 9 10 9 9 8 8 8 9 9 8 8 7 5 6 5 5 4 6 5 4 4
6 5 5 2 6 5 1 4 7 9 5 5 2 3 3 3 4 7 10 11 10 7 8 6 1 3 3 2 3 5 6 6 5 5 7 8 8 6 5 4 5 11 9 9 9 7 6 6 6 6 5 4 3 2 2 4 4 4 5 5 6 7 7 8 8 9 8 8 8 8 7 7 7 8 9 8 8 8 6 4 4 4 3 3 4 3
5 6 3 6 5 4 6 6 7 3 4 5 0 1 1 5 5 8 11 12 11 9 7 6 2 3 4 4 5 4 5 4 6 8 7 4 5 5 5 4 5 11 12 8 8 8 8 7 7 8 7 8 6 4 3 3 3 1 2 3 4 5 5 5 6 7 7 7 7 7 8 7 6 6 7 8 7 7 7 7 6 5 6 4 3 3
9 6 4 6 3 8 4 5 9 7 10 6 4 3 4 3 4 4 8 5 6 3 5 5 3 3 4 4 5 5 4 4 4 7 7 5 6 7 7 6 9 12 13 11 9 8 9 9 9 8 7 7 6 6 6 3 3 3 3 3 2 1 2 5 7 7 7 8 8 7 7 7 8 5 6 6 6 7 6 3 5 5 4 4 4 3
4 9 2 7 4 6 7 8 7 7 8 2 3 2 2 2 3 2 5 9 7 8 7 6 5 4 5 5 6 6 6 5 5 4 4 4 5 6 7 6 8 14 15 12 10 9 9 9 10 10 9 9 9 7 4 5 8 8 8 8 8 8 8 8 6 3 6 8 9 11 9 9 7 8 7 8 6 5 6 5 2 3 3 3 4 3
5 5 5 8 5 5 7 8 7 7 3 1 1 3 2 2 1 1 6 6 6 2 4 7 7 6 5 6 5 6 6 5 4 4 5 5 5 4 6 8 10 14 15 13 11 10 9 10 11 11 10 10 12 9 9 10 11 11 10 10 9 10 9 9 8 8 6 4 7 8 7 8 9 7 7 7 6 6 5 4 3 3 4 5 6 7
7 7 7 9 10 7 7 8 8 4 5 5 5 4 3 2 1 4 7 4 1 2 2 5 6 6 6 5 6 6 6 4 5 5 5 6 7 6 2 6 9 16 16 14 12 12 11 10 10 11 12 13 11 10 11 12 12 13 12 11 11 12 11 9 8 8 8 3 7 5 7 5 7 8 6 5 5 5 4 4 4 5 6 6 5 6
8 7 7 10 9 8 7 8 8 7 2 7 5 5 5 2 2 7 5 4 5 1 1 2 4 6 6 5 4 4 1 5 8 9 9 9 8 9 6 7 8 12 14 14 14 12 12 12 11 11 11 12 11 10 11 13 14 14 13 13 14 13 10 8 8 10 10 7 9 8 8 8 8 8 6 6 6 6 6 4 5 5 6 7 6 7
6 5 6 7 9 9 7 9 8 6 4 4 6 5 6 4 7 4 5 5 1 1 2 2 3 5 6 5 3 1 5 5 9 11 12 10 9 10 10 11 11 13 15 16 18 15 14 13 14 13 13 13 11 10 11 15 16 14 14 15 15 13 9 10 10 8 8 12 11 11 11 10 9 8 8 8 8 8 6 5 5 7 8 6 7 8
2 6 7 8 6 5 5 8 5 6 3 4 9 6 4 7 3 2 3 2 2 1 1 2 2 3 5 5 3 6 9 8 10 11 12 10 9 11 11 11 11 13 15 17 18 17 16 15 14 13 12 10 9 9 11 15 16 15 14 17 12 8 9 10 10 10 10 12 12 12 11 10 12 10 8 9 9 9 8 6 5 8 9 8 7 7
4 7 4 4 3 7 6 7 3 3 4 6 8 3 4 1 3 4 5 2 4 2 0 1 2 3 5 4 6 9 10 10 10 9 11 10 10 12 12 12 12 13 14 15 16 16 16 15 14 13 13 12 10 9 10 13 15 14 15 15 10 11 10 10 10 12 12 11 9 10 8 10 11 10 8 7 7 7 7 6 6 7 7 7 6 5
6 6 4 4 3 7 5 4 5 2 3 3 4 2 2 4 3 4 4 5 4 1 1 1 2 5 6 3 8 10 10 10 10 10 11 11 11 12 12 12 12 13 13 15 15 14 15 15 16 15 15 12 12 11 11 11 14 16 16 13 11 11 11 10 10 11 12 12 12 10 9 9 8 8 7 5 7 7 6 8 7 7 6 4 3 4
0 2 1 4 4 2 5 1 2 1 1 1 4 1 3 2 2 2 4 3 2 2 1 2 3 6 10 4 6 6 9 11 11 11 11 11 12 12 13 13 13 13 14 15 14 14 15 15 16 17 16 15 13 12 11 12 13 16 13 11 11 11 10 10 10 10 10 10 9 10 10 11 10 9 8 8 8 9 8 6 5 5 3 3 3 2
4 4 5 5 2 2 2 5 3 2 2 2 2 1 1 2 2 3 1 2 1 2 2 2 3 5 10 11 8 6 9 7 11 11 12 12 12 13 13 13 12 13 14 15 13 13 13 14 15 16 16 15 13 13 12 13 13 12 11 11 11 11 11 11 11 10 10 10 9 8 7 8 8 8 8 8 8 7 6 5 5 4 4 3 3 3
5 6 7 7 4 7 2 3 2 2 0 1 2 2 3 3 2 2 1 2 3 4 4 4 4 4 7 9 9 8 7 8 8 8 10 10 10 10 11 12 12 12 12 12 13 13 14 14 15 15 15 14 12 11 11 10 11 11 12 12 12 11 10 10 10 11 11 11 9 8 8 9 11 9 8 7 7 6 7 6 5 5 5 5 5 3
4 8 5 4 6 4 2 3 2 3 2 3 2 2 2 1 3 3 3 4 6 7 6 5 4 6 7 9 8 8 12 13 12 9 9 9 9 9 10 11 12 12 12 13 13 13 13 14 15 15 15 13 11 11 11 11 11 11 11 11 10 10 10 10 11 11 11 10 9 9 8 8 8 8 8 8 8 8 7 6 5 6 6 6 5 5
5 7 3 4 6 6 5 4 9 5 4 6 4 3 3 4 5 4 4 5 6 8 8 9 10 9 12 13 11 9 12 13 14 12 11 10 8 9 8 10 11 13 13 13 12 14 14 14 15 15 14 12 10 10 11 10 10 10 10 10 9 9 9 10 10 10 9 9 9 9 8 8 7 6 6 7 7 7 6 7 7 7 4 5 5 6
7 5 4 6 5 4 3 6 6 3 6 5 5 5 4 3 4 4 4 4 5 8 9 11 13 12 14 15 15 17 15 13 13 14 13 11 9 9 10 11 12 12 13 13 14 13 13 13 14 15 15 13 11 12 12 11 11 10 9 8 8 8 8 8 8 9 9 9 8 8 7 7 7 6 6 5 5 5 6 6 5 9 11 9 5 5
Wind_Direction
167 211 198 211 223 192 150 246 249 243 260 282 292 306 315 308 109 130 105 83 182 256 221 224 229 217 208 197 198 207 201 205 202 193 190 187 178 179 183 177 176 170 170 160 157 158 159 163 165 162 164 164 162 165 158 169 166 166 165 161 163 166 162 160 164 170 173 165 168 163 169 161 158 154 148 157 150 149 126 123 116 142 133 126 134 135
219 229 215 199 57 104 162 197 222 245 253 269 285 279 295 261 311 61 21 94 187 267 111 194 224 214 220 186 199 207 207 204 203 195 191 187 183 181 184 177 180 169 168 158 159 163 162 165 167 166 168 169 165 168 166 174 170 170 169 166 165 166 169 171 172 171 178 170 175 171 172 160 150 153 168 151 165 146 123 124 132 162 99 122 138 142
212 223 171 174 182 171 205 223 234 258 264 262 261 304 285 162 212 71 50 136 130 257 44 147 233 229 204 180 192 205 218 210 217 205 195 189 184 182 184 180 178 176 173 164 166 171 168 167 170 170 172 172 171 171 171 172 171 172 172 169 169 168 173 175 174 177 177 176 168 179 165 163 159 159 167 152 148 143 139 147 152 134 141 174 148 158
211 224 188 167 185 213 212 232 250 255 254 252 248 241 251 43 306 204 144 154 180 256 341 155 259 233 185 167 204 221 228 231 209 226 203 196 192 187 185 181 181 182 173 175 174 173 171 168 173 174 174 175 173 172 174 174 173 173 174 171 174 171 176 173 172 184 176 170 162 173 167 155 168 162 123 104 141 162 154 162 160 165 172 201 174 156
232 68 87 167 190 224 230 214 242 247 244 232 238 257 266 282 321 305 17 160 259 227 256 247 231 246 195 190 204 209 217 328 296 262 226 202 204 196 188 186 186 184 179 181 178 178 173 172 177 178 176 175 178 177 177 179 174 177 173 173 176 173 177 175 169 181 175 164 174 162 147 165 129 144 164 175 171 177 176 193 174 159 175 172 192 155
248 171 156 206 206 216 236 237 231 251 254 252 240 241 264 286 292 278 231 262 228 203 181 237 275 171 185 195 199 189 194 205 218 213 223 208 200 196 196 194 185 187 184 192 183 181 176 179 175 178 179 180 180 182 179 185 176 178 171 172 176 174 181 178 172 180 177 179 181 179 178 182 182 176 179 183 177 173 175 188 147 144 171 168 176 169
284 151 195 218 214 216 226 240 238 228 252 256 184 47 179 199 274 226 253 263 274 327 88 221 293 307 163 205 197 182 189 211 204 208 215 205 204 200 198 198 190 187 187 193 189 186 185 180 178 180 184 185 184 180 181 184 178 180 171 173 177 178 181 181 173 181 186 185 190 191 192 186 185 177 175 178 177 163 168 134 140 139 149 165 202 170
205 177 211 225 226 227 222 225 222 231 246 246 77 243 175 231 211 241 277 273 287 115 157 270 247 288 258 200 199 175 188 207 213 206 206 210 213 203 200 200 195 190 192 188 191 191 193 183 184 184 183 191 184 180 181 182 180 179 175 172 178 178 183 184 172 182 187 190 193 195 204 189 200 185 165 172 189 153 131 144 169 144 148 155 204 177
230 175 206 207 223 225 234 234 207 211 237 269 68 193 230 202 187 227 260 279 310 310 270 190 185 251 256 123 171 179 197 210 219 213 209 205 209 206 204 205 198 196 194 194 191 192 194 188 187 186 186 190 184 181 181 181 179 177 177 175 177 179 183 183 179 182 186 195 193 198 196 199 203 201 180 183 184 180 183 193 163 182 157 154 171 206
117 265 190 241 230 224 230 221 247 229 234 195 197 194 180 171 167 235 263 274 269 273 284 264 178 277 284 145 168 185 209 216 215 210 212 207 200 200 204 207 202 197 198 199 197 194 195 192 192 188 186 186 186 179 179 181 179 175 177 178 180 182 183 182 183 188 186 195 198 202 209 196 199 204 210 212 188 196 207 213 192 191 212 216 175 172
17 132 6 261 234 302 13 258 244 235 255 126 197 206 198 208 208 200 250 258 266 261 264 96 182 256 304 169 180 172 203 204 200 208 208 205 201 201 201 203 202 198 198 199 197 196 196 197 192 189 187 184 185 179 177 182 180 177 178 179 183 186 188 185 186 189 191 196 201 207 207 209 211 208 211 211 206 206 205 218 212 196 200 227 234 206
199 186 216 206 252 284 259 209 217 224 202 194 201 213 203 232 223 230 222 226 258 259 80 284 203 208 261 146 189 203 204 202 186 198 202 196 197 200 198 203 203 199 197 198 199 197 195 198 193 191 189 184 185 181 178 184 180 181 179 179 183 186 190 189 188 192 196 199 202 210 208 213 219 221 219 222 225 216 215 217 217 210 214 221 213 221
189 188 145 177 207 231 208 235 165 196 182 217 194 222 214 217 193 242 226 232 222 262 122 139 173 216 231 262 203 198 205 185 189 196 211 199 192 197 197 199 204 199 197 197 197 199 198 198 194 189 188 187 185 187 184 185 181 182 182 181 184 187 190 192 192 192 198 202 202 204 206 210 215 221 230 233 232 218 222 218 211 197 218 203 222 219
122 153 181 133 196 212 231 225 175 205 204 222 218 203 211 226 221 247 229 245 247 153 184 176 196 253 288 253 234 227 210 197 182 192 215 213 197 194 195 196 202 200 199 198 195 199 199 197 195 190 189 187 186 190 189 190 184 183 184 184 187 187 189 192 196 194 197 202 205 202 206 206 205 214 221 226 230 219 222 218 238 238 207 202 215 210
248 169 142 195 192 165 229 252 237 259 199 223 224 222 230 241 238 245 248 239 247 276 146 136 225 272 242 102 72 316 214 192 177 179 196 223 215 200 198 195 200 200 199 198 198 197 198 199 194 192 189 187 189 192 190 192 186 185 187 184 188 188 189 193 197 198 200 201 203 203 206 208 209 211 213 221 224 234 225 231 223 223 243 219 197 206
323 352 88 9 352 220 232 221 277 263 260 225 234 239 229 241 296 261 290 276 244 273 242 172 252 316 325 109 127 192 145 163 160 172 180 210 229 220 207 201 198 201 197 198 199 198 197 197 195 194 192 191 191 192 192 193 189 191 189 186 190 191 190 194 197 202 203 205 204 204 207 210 212 216 219 214 216 220 236 230 241 222 229 242 225 199
193 191 75 97 198 225 236 213 207 248 244 124 206 228 243 304 266 272 249 263 263 265 273 249 255 239 167 199 182 159 159 167 166 175 188 202 215 224 221 207 199 200 199 198 198 197 196 195 196 196 196 195 193 193 195 193 189 193 190 189 190 192 193 194 196 201 205 205 209 206 209 213 210 212 217 215 210 223 215 224 225 222 221 206 220 227
306 57 96 263 168 126 265 245 220 177 354 194 236 191 84 354 299 153 276 264 236 245 291 342 272 279 254 329 132 178 194 180 181 184 189 192 207 220 216 208 199 197 199 199 198 195 195 194 196 197 198 198 195 193 193 193 192 190 194 192 192 193 196 196 195 199 200 203 207 209 211 213 219 218 218 222 221 213 216 206 217 226 208 216 207 213
332 272 135 41 319 66 155 188 162 104 254 189 238 356 217 199 216 208 235 264 255 259 263 249 257 270 289 265 162 202 208 199 193 184 183 193 198 216 221 212 204 201 198 194 189 187 191 193 194 197 199 198 197 194 191 192 192 191 195 196 197 198 197 199 197 198 201 203 206 208 210 212 212 220 223 222 222 226 218 218 200 213 211 209 200 197
245 293 196 144 259 114 151 219 223 158 171 296 322 271 258 310 299 231 199 283 264 269 281 263 285 277 272 14 342 10 338 246 205 188 195 195 191 200 219 212 208 205 195 182 183 189 194 198 197 196 197 196 195 195 193 192 194 197 196 196 199 201 200 202 203 197 202 203 208 208 205 208 212 212 220 219 217 218 215 215 215 209 203 211 207 201
276 133 286 164 141 214 209 227 270 152 196 211 212 228 178 230 21 294 216 245 258 262 255 285 279 257 58 353 336 323 310 285 256 207 198 200 192 192 205 216 204 194 180 174 178 183 190 198 202 197 197 196 195 195 194 191 199 202 199 196 197 200 202 201 205 201 202 205 207 209 208 205 203 209 209 216 211 219 218 213 216 211 217 197 213 211
281 234 273 288 256 231 24 358 323 242 190 178 172 258 213 214 188 214 244 214 258 255 259 271 276 311 70 339 346 311 320 311 255 239 207 204 198 185 193 212 207 192 181 180 184 192 197 201 205 200 196 199 196 195 196 194 199 202 201 200 197 199 203 203 202 204 200 207 205 210 206 210 202 205 209 213 211 213 211 212 206 213 214 211 204 208
313 312 284 268 270 342 42 348 292 286 212 259 229 207 250 283 239 236 254 260 268 261 261 299 308 311 7 350 338 338 352 346 330 226 219 199 205 189 190 199 198 190 188 186 187 197 201 199 200 198 196 198 198 196 195 196 197 198 200 202 197 202 199 204 201 198 201 205 208 208 210 211 207 206 209 212 215 212 213 204 209 204 208 218 212 199
250 280 263 252 183 149 128 191 268 304 145 205 188 261 245 247 255 255 243 323 275 220 237 216 269 260 206 28 356 352 350 340 341 240 206 177 175 167 164 181 178 184 184 183 188 199 202 199 196 196 195 196 197 196 197 196 195 195 196 198 198 201 198 197 196 193 195 203 207 209 212 212 216 211 209 212 215 218 218 214 203 199 210 214 220 206
271 122 304 276 232 214 203 186 175 317 285 254 159 117 319 181 220 196 195 285 264 247 270 278 269 340 36 331 47 319 17 20 42 133 116 110 105 152 174 174 199 208 197 191 193 198 196 197 196 195 194 193 194 196 196 194 192 192 193 194 197 199 196 193 192 190 193 201 208 212 213 214 214 215 213 216 218 219 220 222 212 195 208 212 216 220
287 332 278 279 263 240 234 236 241 196 205 229 110 138 208 206 168 143 207 197 235 205 270 263 264 148 85 54 23 9 23 46 29 30 74 91 111 129 154 174 205 216 207 195 195 195 196 198 196 195 194 193 193 194 194 194 193 192 193 195 196 194 189 190 190 192 194 199 205 209 214 215 213 216 213 211 215 225 226 223 218 210 199 214 216 216
292 299 278 292 292 289 341 286 241 328 278 247 162 251 177 214 242 246 329 261 239 285 258 150 264 293 290 308 40 357 359 16 34 67 72 108 110 106 94 149 185 190 217 197 193 194 195 196 199 199 197 196 197 196 195 195 195 195 195 198 196 195 191 189 191 192 195 197 202 204 211 213 214 214 213 206 210 212 226 227 218 216 211 203 215 215
253 265 211 251 268 288 318 310 106 56 255 212 220 253 235 225 262 263 246 83 173 221 252 179 274 289 251 320 43 9 359 43 18 83 213 83 107 125 116 135 144 190 185 181 187 189 187 197 198 200 200 203 202 201 201 201 202 199 199 200 198 195 195 193 193 193 196 198 200 203 203 211 213 214 215 205 200 206 213 225 227 217 213 217 207 216
285 281 155 254 251 262 284 314 302 180 232 25 1 333 297 322 261 244 123 132 261 261 288 335 301 272 297 333 8 53 354 352 15 28 13 97 142 148 145 145 174 183 182 186 182 188 193 193 195 195 196 200 203 203 203 202 204 204 204 205 201 198 201 199 195 196 197 200 204 203 202 201 209 206 209 208 199 201 201 215 227 223 224 213 224 220
275 256 295 267 288 258 241 256 249 268 251 230 209 221 252 231 276 320 283 182 217 289 243 279 280 280 313 308 348 28 22 28 41 42 38 118 142 175 146 128 127 140 170 178 179 191 193 192 191 194 194 198 200 202 203 203 205 205 206 204 202 202 200 198 198 197 200 202 204 202 195 194 194 198 199 200 199 199 200 210 219 221 218 220 218 228
250 267 146 256 265 253 235 234 248 257 263 265 254 238 247 270 268 210 264 256 273 243 274 283 259 245 102 310 252 341 82 93 82 63 32 352 43 64 137 136 103 67 78 131 156 175 168 171 174 178 191 198 203 207 207 207 206 207 209 208 205 203 200 197 200 199 197 205 203 195 187 186 187 192 201 164 235 205 210 212 215 223 218 223 224 229
219 250 213 260 261 250 209 248 261 279 269 271 271 257 256 261 262 265 269 325 302 310 306 266 240 189 138 108 258 138 128 77 73 84 98 61 30 72 74 135 119 129 294 106 129 167 167 169 163 171 169 168 184 194 201 202 203 204 208 206 207 208 206 208 204 203 206 208 202 197 196 189 181 160 122 192 244 279 267 207 209 205 211 224 222 211
219 256 238 227 247 263 111 241 279 283 280 255 243 331 313 284 283 287 276 279 275 304 288 300 7 75 126 161 182 193 123 76 61 11 47 92 65 51 42 73 81 106 140 100 125 155 164 165 154 161 169 180 190 196 197 199 203 208 208 207 206 205 206 213 208 202 207 205 206 201 192 170 155 137 139 160 168 163 207 227 205 203 213 217 222 206
243 249 261 260 257 264 128 283 273 267 257 277 101 272 346 302 302 272 268 276 280 262 291 297 347 102 127 144 219 139 71 66 40 39 11 72 97 79 42 16 59 60 44 64 70 79 70 97 130 138 136 157 175 206 207 212 213 211 209 209 210 209 212 217 208 212 214 209 205 188 177 165 156 155 154 145 150 177 183 170 175 205 201 190 196 217
225 235 249 194 251 269 62 250 250 247 263 62 146 99 243 297 278 284 283 278 279 269 272 277 241 138 115 104 65 80 82 80 61 52 36 60 85 84 105 88 65 88 60 24 19 34 37 33 49 61 65 73 99 105 211 203 207 203 198 207 210 215 219 217 222 222 218 212 199 185 178 177 175 168 164 157 160 166 158 148 147 151 168 178 178 155
250 230 227 226 259 277 255 230 245 266 74 255 105 267 44 266 279 286 280 264 250 248 253 265 283 152 148 143 139 129 124 116 96 56 46 58 112 128 112 91 81 80 78 65 33 20 26 40 45 44 41 32 37 46 20 31 17 188 181 196 214 215 217 215 214 215 209 191 166 155 163 164 159 165 168 159 156 161 158 178 192 177 187 200 197 186
266 285 257 259 174 265 262 271 276 328 290 238 232 222 241 292 288 294 296 293 346 255 232 242 213 163 163 152 154 157 156 167 126 68 44 31 59 86 114 126 111 95 87 78 66 47 36 43 51 56 58 54 48 45 48 50 54 56 50 43 3 308 254 232 217 208 183 166 157 149 124 122 131 161 176 157 146 134 131 197 199 181 175 190 187 175
233 254 225 259 210 238 275 277 259 252 256 184 159 55 35 288 296 288 288 292 241 248 226 219 215 181 170 161 171 177 193 195 165 100 63 53 48 69 82 91 96 94 92 88 78 60 53 50 56 55 55 62 58 50 50 59 73 63 59 56 56 57 49 35 12 301 220 187 178 176 159 155 160 163 164 156 159 156 151 154 224 155 186 192 182 164
223 229 247 245 245 213 243 254 263 273 282 26 91 107 96 66 347 308 259 251 34 324 206 197 195 199 200 185 192 192 207 206 144 108 83 73 48 51 87 88 93 90 89 88 88 84 75 69 68 67 67 69 68 61 57 63 67 72 67 62 59 56 50 39 31 23 347 239 174 150 148 159 161 149 149 153 150 149 151 153 149 108 74 59 60 64
217 215 221 229 246 247 258 254 258 240 286 129 127 153 138 80 185 256 258 194 249 5 196 206 199 187 195 203 195 213 238 212 158 117 82 62 43 13 77 118 108 100 94 90 85 85 80 77 73 75 78 78 75 77 79 80 80 75 72 67 63 57 50 42 37 28 20 2 81 83 99 106 127 137 135 118 96 98 104 98 93 104 98 88 80 91
208 221 221 249 248 237 232 269 276 265 158 129 154 134 119 130 282 258 263 48 14 98 121 200 200 173 169 191 217 252 35 13 90 115 106 96 81 62 48 89 90 96 102 98 94 91 86 82 75 73 74 80 83 87 92 92 86 82 82 82 75 66 59 55 52 57 51 26 73 73 71 76 75 75 68 72 84 80 73 75 100 105 102 96 88 80
231 242 237 256 256 258 249 253 265 282 77 120 144 144 141 187 233 293 44 251 295 103 153 222 198 181 181 205 188 155 98 104 116 117 110 103 97 94 86 81 85 88 91 95 97 93 87 80 76 77 77 82 83 84 86 91 88 87 85 79 73 72 67 57 50 36 47 61 55 61 73 78 74 75 82 86 84 79 66 58 80 89 81 66 70 79
221 225 225 224 241 257 258 259 259 258 109 185 129 153 161 249 23 142 275 87 358 30 287 178 218 168 193 184 186 125 123 134 126 113 107 105 102 104 101 98 92 89 93 95 94 96 96 91 79 63 60 51 53 70 81 88 87 86 82 81 77 70 64 60 53 48 50 59 59 58 55 59 68 67 73 77 81 85 83 82 82 82 79 76 72 79
76 249 241 241 228 272 246 250 281 4 96 158 184 271 169 277 1 336 329 337 67 311 21 191 183 189 175 162 143 135 131 133 126 115 109 108 110 109 105 103 98 97 93 89 93 95 95 94 90 83 75 69 57 53 71 82 87 86 84 84 86 86 81 75 69 69 65 60 54 57 45 56 65 67 63 67 70 75 80 70 64 70 74 86 87 88
157 266 347 299 133 250 305 335 82 133 102 169 245 317 332 350 337 339 308 311 301 129 145 245 161 168 91 149 148 144 140 144 133 125 119 123 118 110 106 105 102 100 96 95 94 95 95 96 96 92 87 82 77 72 75 82 92 93 92 97 98 93 92 91 91 89 86 83 81 78 71 64 60 55 59 61 82 78 73 74 61 66 69 83 108 136
242 287 17 268 241 249 270 321 101 133 148 154 220 297 307 338 336 325 322 289 58 19 98 189 169 152 137 194 137 150 144 146 138 130 126 122 115 106 106 105 104 102 103 101 99 98 99 100 100 100 99 93 87 82 77 80 85 88 93 98 98 95 91 88 86 85 85 83 79 84 90 92 91 80 69 66 69 68 59 61 76 94 106 98 85 85
212 191 223 237 96 267 237 145 214 187 144 196 248 81 9 276 304 296 263 298 212 182 155 185 189 174 147 157 164 155 148 155 135 132 125 121 116 113 110 109 105 102 102 102 106 108 104 100 96 94 93 90 88 92 95 93 90 93 100 99 99 100 100 97 94 91 89 88 86 82 82 88 93 94 88 86 84 84 87 78 75 70 78 102 123 110
205 192 235 241 233 247 335 108 92 95 246 317 270 202 194 191 208 243 222 186 174 180 181 158 177 142 133 161 143 150 109 84 86 98 115 112 110 110 112 110 109 106 103 103 103 102 101 99 96 93 89 88 87 90 95 93 91 93 93 96 99 104 106 103 101 101 101 101 100 95 91 87 83 83 80 69 72 83 88 86 78 66 51 34 17 38
97 161 235 193 239 204 132 198 156 175 183 164 167 309 13 137 163 195 182 173 186 163 147 132 105 119 115 110 97 113 110 101 93 70 62 73 90 104 106 107 107 107 109 107 105 104 101 100 96 93 91 90 90 89 89 95 98 100 100 102 104 104 101 100 99 98 98 97 95 94 91 89 89 87 84 79 73 57 34 27 46 71 72 40 20 6
176 224 188 217 234 235 276 171 175 222 183 154 155 160 166 172 187 173 172 168 158 147 145 135 112 106 122 119 114 96 91 101 102 103 98 86 83 87 95 106 107 105 103 103 103 101 98 96 97 97 96 94 92 88 86 85 87 93 100 105 106 103 99 98 94 90 86 87 89 87 84 81 80 80 93 102 101 93 77 47 44 11 31 87 54 39
227 206 198 227 245 287 53 131 165 81 85 88 120 143 152 166 177 181 179 168 152 150 144 137 131 124 121 119 118 117 121 117 114 113 107 111 119 124 119 110 107 106 105 106 104 102 99 99 99 100 98 98 97 93 90 87 84 82 80 83 90 93 94 98 100 97 92 85 81 83 88 90 88 85 76 73 84 107 118 117 79 44 33 36 48 24